MDPC

Punta Cana international Airport

Airport
ICAO code
MDPC
IATA Code
PUJ
Summary
ICAO Region
CARSAM
ICAO Territory
Location

Punta Cana, Dominican Republic

Serving
Punta Cana
Elevation
40 ft
Coordinates
18° 33' 44" N , 68° 22' 6" W
KCC
Airport WX
Tropical Revolving Storm
Metar
Observation
MDPC 050100Z 08012KT 6000 RA BKN016 OVC070 24/20 Q1021
Station
Punta Cana
Date/Time
2023-02-05 01:00:00
Wind direction
80°
Wind speed
12 kts
Lowest cloud amount
broken clouds
Temperature
24°C
Dew point
20°C
Humidity
78%
QNH
1021 hPa
Weather condition
n/a

International airport serving the eastern Dominican Republic.

Climatology

Tropical Monsoon climate (Köppen climate classification Am) - monthly mean temperatures above 18°C in every month of the year and features wet and dry seasons. A tropical monsoon climate typically features less pronounced dry seasons than a tropical savanna climate and see less variance in temperatures during the course of the year. The driest month nearly always occurs at or soon after the "winter" solstice.

Runways

Designator Length Width Surface Rops
9/27 3100 48 ASP Yes/Yes

Airport map

Aerial View

SKYbrary Partners:

Safety knowledge contributed by: